Lid_Strength_Index
1 1 1 0 0 -0 -0 -1 -1 -1 -1 -1 -1 -1 -0 -0 0 4 9 5 3 -1 1 6 6 7 7 7 7 9 14 15 14 13 12 10 10 9 9 9 9 8 8 8 6
1 1 1 1 1 0 -0 -0 -1 -1 -1 -1 -1 -0 -0 -0 5 7 2 -1 -3 -2 7 8 9 8 9 8 8 12 14 14 12 12 11 10 10 10 10 10 10 9 9 10 9
1 1 1 1 1 0 -0 -0 -1 -1 -1 -1 -1 -1 -0 2 9 9 -1 -1 -2 1 6 7 7 8 10 9 9 11 13 13 11 11 10 10 10 10 10 10 10 9 10 10 10
0 1 1 1 1 1 0 -0 -1 -1 -1 -1 -1 -1 0 6 13 7 -1 -2 -2 5 7 7 8 10 12 12 10 12 11 11 9 10 10 11 10 10 10 10 11 11 10 11 11
1 1 1 1 1 1 1 0 -0 -1 -1 -1 -1 -0 5 8 8 3 -1 -0 4 6 8 9 10 10 12 12 11 11 11 11 10 10 11 11 11 11 11 12 11 11 12 12 12
0 1 1 1 1 1 1 0 0 -0 -0 -1 -1 0 8 10 4 2 4 6 6 7 8 9 10 10 11 11 12 12 12 11 11 11 11 12 12 11 12 11 12 12 13 13 13
0 0 0 0 0 0 0 0 -0 -0 -0 -1 -0 3 8 7 3 3 5 7 6 7 8 8 8 9 10 12 11 11 12 12 12 12 12 12 13 13 12 12 13 13 13 14 14
1 1 1 1 1 1 0 0 -0 -0 -0 -0 0 6 8 6 3 3 5 6 6 7 7 7 8 9 10 10 12 14 14 15 12 12 12 12 14 13 12 12 14 14 15 15 15
2 1 1 1 1 1 1 1 1 1 1 1 6 8 9 5 7 6 7 7 8 9 8 8 9 11 11 14 15 15 16 16 14 12 13 13 14 14 13 13 14 15 15 15 15
1 2 2 2 1 2 1 1 1 3 3 4 5 9 8 9 8 7 8 7 9 9 10 10 12 14 14 15 17 16 17 16 16 14 14 15 14 14 14 14 16 17 17 16 16
2 1 1 2 2 2 3 5 7 8 8 9 10 10 10 10 9 9 8 9 10 11 13 12 15 15 13 14 15 15 16 16 15 13 14 14 14 14 15 15 16 17 17 17 17
2 2 2 2 1 1 3 7 7 8 11 8 8 8 9 9 12 11 9 11 12 14 14 15 16 13 13 14 15 15 16 17 16 14 14 15 15 16 16 16 16 17 17 17 16
2 2 2 2 2 3 5 5 6 7 11 9 8 9 8 9 11 11 10 11 13 15 15 16 14 14 14 15 15 16 17 17 16 16 16 16 17 18 17 17 17 16 16 16 16
1 2 2 2 4 4 5 4 7 7 14 13 10 9 10 10 12 9 9 11 13 15 14 15 14 14 16 16 15 17 15 16 16 17 19 16 20 18 18 18 17 17 17 17 16
1 1 1 2 4 5 5 4 6 7 20 12 12 10 10 10 12 12 11 11 14 14 13 15 15 15 16 15 15 16 15 16 17 18 19 19 20 19 18 19 18 17 17 17 17
1 1 1 2 3 5 6 4 5 13 19 14 13 14 13 13 14 13 13 12 12 14 15 14 14 14 14 15 14 15 16 17 18 19 22 18 18 19 19 17 18 17 17 16 17
1 1 2 2 5 6 4 5 14 18 12 15 15 14 14 16 15 14 14 15 15 17 18 16 15 15 15 16 16 16 17 20 21 22 21 19 20 17 17 16 16 17 17 16 16
2 2 2 2 5 5 5 9 18 14 14 14 15 15 15 15 16 15 16 16 15 15 17 17 18 15 15 15 16 18 17 20 23 23 21 18 20 17 16 16 15 15 15 16 17
2 2 2 2 4 4 8 15 15 14 12 14 15 17 17 16 16 16 16 16 14 15 15 17 17 15 15 15 14 17 18 15 19 25 22 19 17 17 17 17 16 16 16 16 16
2 3 3 2 3 5 10 13 12 10 11 13 14 15 18 16 16 17 17 15 14 13 13 15 17 16 16 14 15 16 15 18 19 23 25 20 19 17 18 18 17 17 16 16 16
3 6 4 2 3 7 13 12 10 9 9 12 13 14 16 16 15 17 16 15 14 14 12 14 15 17 16 17 17 17 17 17 17 18 22 24 20 16 16 16 17 16 15 16 16
5 10 4 2 9 9 12 10 9 9 8 9 10 11 14 14 15 16 16 14 13 13 14 13 15 19 18 16 16 16 16 16 18 21 21 20 20 16 15 15 15 15 15 15 15
7 7 5 5 12 12 10 10 9 10 9 10 11 10 10 12 14 13 14 14 13 14 14 13 15 19 18 17 17 17 16 16 16 17 21 21 19 15 15 15 14 15 15 15 16
7 10 9 8 8 10 11 11 11 8 9 9 10 9 11 12 11 13 14 13 13 13 11 11 15 16 17 17 17 18 17 16 15 21 19 17 18 17 16 15 15 15 14 14 15
7 10 9 12 11 10 11 12 12 12 9 8 11 11 11 14 13 13 12 15 13 12 12 12 16 17 17 17 17 18 18 16 17 15 17 17 16 15 14 14 14 14 14 15 15
8 10 9 11 10 11 10 13 13 11 11 12 12 10 10 13 13 15 14 14 14 14 14 14 16 15 17 18 18 18 17 17 16 16 17 17 16 14 13 14 15 15 14 14 14
7 8 8 9 11 12 13 12 12 11 11 11 11 11 13 12 11 12 11 11 13 14 15 15 17 17 19 20 19 19 18 18 17 17 15 17 13 16 16 15 14 14 14 14 13